Dewpoint
-4 -6 -4 -3 -4 -3 -4 -4 -4 -3 -4 -3 -3 -3 -3 -2 -1 0 3 4 4 5 4 3 3 3 4 3 4 3 4 5 5 6 6 6 7 5 5 3 5 5 5 6 5 6 4 0 1 2 -0 -0 1 3
-4 -7 -4 -4 -3 -4 -4 -4 -5 -4 -5 -4 -3 -3 -3 -2 -2 -0 1 4 4 5 4 4 4 3 3 3 3 4 4 4 4 6 5 5 7 4 4 5 3 6 4 5 4 3 0 1 1 1 0 1 1 0
-4 -3 -3 -4 -4 -5 -5 -4 -4 -4 -4 -5 -3 -4 -4 -3 -2 -1 0 3 4 5 4 4 4 3 3 3 3 3 4 4 5 5 5 4 6 3 5 4 4 3 2 4 4 2 2 2 1 0 0 0 1 1
-2 -4 -6 -4 -4 -4 -6 -5 -5 -5 -4 -4 -4 -11 -5 -4 -2 -2 0 2 3 4 4 4 4 4 4 4 4 4 3 4 4 5 6 6 5 2 3 3 3 3 3 3 3 2 1 1 1 0 0 1 1 1
-4 -4 -9 -16 -12 -4 -6 -5 -6 -5 -5 -8 -12 -5 -4 -3 -3 -4 1 4 4 4 5 5 5 4 4 4 4 4 4 4 5 6 6 7 3 3 2 1 3 2 3 4 5 2 1 0 1 0 0 0 1 1
-2 -9 -10 -16 -19 -12 -12 -5 -5 -5 -5 -5 -5 -5 -7 -7 -7 -3 3 4 4 4 5 5 5 5 4 4 4 4 4 4 5 5 6 5 5 3 3 3 1 2 2 2 2 1 1 1 1 0 -0 0 0 1
-4 -12 -7 -13 -16 -18 -17 -12 -5 -5 -5 -4 -3 -4 -6 -13 -9 -3 1 3 4 4 4 4 4 5 5 4 4 5 5 5 5 4 6 6 5 5 4 5 3 2 1 1 2 1 1 1 0 0 -0 -0 0 1
-8 -9 -11 -9 -13 -15 -14 -12 -5 -5 -4 -4 -4 -3 -7 -12 -10 -5 0 3 3 4 5 4 4 4 5 5 5 5 5 5 5 5 5 5 4 4 6 3 3 2 1 0 1 1 0 1 0 -0 -0 -0 -1 -3
-8 -9 -8 -8 -11 -12 -9 -10 -11 -5 -4 -5 -3 -1 -1 -4 -5 -0 3 4 4 4 4 3 4 3 4 5 5 5 5 5 5 5 5 5 5 5 4 3 3 3 1 1 0 0 0 0 0 -0 -1 -2 -4 -5
-9 -11 -9 -12 -10 -9 -4 -9 -14 -5 -6 -5 -2 -1 0 0 0 2 4 4 4 4 4 4 3 4 4 4 4 4 4 4 5 5 3 4 5 3 3 2 2 2 1 0 0 0 0 0 -0 -1 -2 -4 -5 -5
-13 -15 -11 -11 -11 -7 -6 -14 -11 -5 -7 -5 -4 -2 -3 0 1 3 4 4 4 3 4 4 3 3 3 4 4 3 3 2 4 1 4 4 4 1 2 2 3 3 1 0 -0 -0 -0 -0 -0 -1 -3 -4 -4 -4
-13 -15 -13 -13 -12 -11 -13 -15 -15 -9 -4 -4 -4 -3 -2 0 0 2 2 2 3 1 3 4 3 2 3 3 3 2 2 2 3 -0 3 4 1 1 1 2 3 2 0 0 -0 -0 -0 -0 -0 -1 -3 -3 -4 -7
-15 -15 -14 -14 -14 -13 -13 -17 -19 -17 -3 -3 -3 -3 -2 -1 1 3 3 3 3 2 3 3 2 2 2 2 1 1 2 3 -0 3 3 1 -1 -1 1 2 3 1 0 0 -0 -0 -0 -0 -1 -2 -2 -4 -7 -9
-15 -14 -14 -15 -15 -13 -14 -18 -20 -11 -4 -3 -3 -2 -2 -1 1 1 1 1 -0 1 3 2 1 1 1 -1 -1 3 1 1 2 3 0 -2 -3 -2 0 2 2 1 0 -0 -0 -1 -1 -1 -1 -2 -5 -8 -9 -12
-15 -15 -15 -15 -14 -15 -17 -18 -17 -4 -4 -3 -3 -2 -1 -0 -1 -0 -0 -0 0 1 2 1 1 0 0 0 -2 -0 2 2 1 0 -2 -3 -3 -1 1 1 1 0 -0 -0 -1 -1 -1 -1 -3 -5 -7 -9 -12 -12
-11 -15 -14 -15 -15 -17 -18 -16 -5 -3 -4 -3 -3 -4 -2 -2 -1 -1 -1 -0 0 1 2 1 0 1 2 -1 -1 0 -0 1 0 -3 -3 -3 -2 0 1 1 0 -0 -0 -1 -1 -1 -2 -3 -5 -7 -9 -10 -11 -12
-7 -12 -12 -15 -17 -18 -17 -6 -4 -4 -4 -4 -2 -2 -2 -2 -1 -1 -1 -0 0 2 2 0 1 0 -3 -3 -2 -3 -1 -0 -2 -3 -2 -2 -1 -0 0 0 -0 -1 -1 -1 -2 -2 -3 -5 -7 -9 -10 -9 -9 -9
-6 -12 -13 -15 -16 -18 -14 -4 -5 -4 -5 -4 -3 -3 -3 -4 -3 -3 -1 -0 -0 1 0 1 -3 -3 -3 -2 -3 -3 -4 -4 -3 -2 -2 -1 -0 -0 -0 -0 -1 -1 -1 -2 -2 -4 -6 -7 -9 -10 -10 -8 -8 -8
-9 -12 -15 -15 -15 -16 -12 -6 -5 -5 -6 -5 -4 -4 -4 -4 -5 -5 -4 -3 -1 -1 -0 -1 -1 -4 -3 -5 -6 -4 -4 -3 -2 -2 -2 -1 -1 -1 -1 -1 -2 -2 -2 -3 -4 -6 -7 -9 -11 -11 -10 -8 -9 -9
-10 -14 -16 -16 -16 -18 -11 -6 -5 -6 -6 -5 -5 -5 -4 -5 -6 -5 -3 -3 -2 -1 -0 -0 -0 -3 -4 -3 -3 -2 -2 -3 -2 -2 -3 -2 -2 -2 -2 -2 -2 -3 -3 -4 -6 -7 -8 -9 -10 -10 -10 -9 -10 -10
-13 -15 -16 -16 -15 -16 -9 -6 -5 -6 -6 -6 -6 -5 -5 -5 -4 -3 -2 -2 -2 -1 0 -2 -3 -3 -4 -4 -5 -5 -4 -2 -3 -3 -3 -3 -3 -4 -3 -3 -3 -3 -4 -6 -7 -8 -9 -11 -10 -9 -10 -10 -10 -11
-13 -14 -13 -14 -14 -9 -8 -6 -6 -7 -8 -7 -6 -6 -7 -7 -4 -3 -4 -3 -5 -7 -7 -7 -7 -5 -3 -4 -4 -4 -3 -2 -3 -3 -3 -3 -3 -4 -4 -4 -4 -5 -6 -7 -8 -10 -10 -11 -10 -10 -10 -10 -10 -10
-11 -12 -13 -13 -12 -12 -11 -9 -7 -7 -9 -10 -8 -11 -13 -9 -5 -5 -5 -7 -8 -9 -9 -8 -7 -6 -5 -4 -4 -4 -3 -3 -3 -3 -4 -4 -3 -4 -4 -4 -4 -5 -7 -8 -9 -10 -10 -10 -9 -10 -10 -10 -9 -9
-10 -12 -11 -13 -12 -16 -13 -11 -10 -9 -8 -12 -15 -12 -14 -9 -6 -7 -9 -8 -10 -9 -9 -9 -9 -7 -5 -5 -4 -3 -3 -3 -3 -4 -4 -4 -4 -5 -5 -5 -5 -7 -8 -9 -9 -10 -10 -9 -9 -10 -9 -9 -9 -10
-10 -11 -12 -17 -12 -16 -16 -16 -17 -14 -12 -15 -10 -13 -14 -7 -10 -13 -12 -11 -11 -10 -10 -10 -10 -9 -10 -8 -6 -5 -4 -4 -4 -4 -4 -4 -4 -5 -5 -6 -6 -8 -9 -10 -9 -9 -9 -9 -9 -9 -9 -9 -10 -12
-13 -14 -14 -16 -17 -16 -14 -15 -15 -14 -15 -15 -14 -11 -10 -11 -11 -11 -13 -12 -12 -13 -13 -12 -12 -11 -9 -9 -9 -7 -6 -5 -4 -4 -5 -5 -5 -5 -5 -6 -6 -8 -9 -10 -10 -9 -9 -9 -9 -9 -8 -11 -13 -14
-13 -15 -13 -12 -11 -11 -12 -11 -11 -14 -15 -14 -16 -15 -15 -12 -13 -13 -11 -11 -13 -14 -13 -13 -12 -12 -11 -10 -9 -8 -7 -6 -6 -4 -4 -4 -4 -4 -3 -4 -5 -8 -9 -9 -9 -9 -10 -9 -7 -7 -10 -13 -15 -17
-10 -12 -12 -10 -10 -11 -16 -15 -16 -14 -14 -12 -12 -14 -14 -13 -12 -12 -13 -13 -13 -13 -13 -13 -12 -11 -11 -10 -10 -9 -9 -7 -7 -6 -6 -6 -6 -6 -5 -4 -4 -4 -3 -7 -9 -9 -7 -5 -8 -11 -13 -15 -17 -22
-9 -10 -11 -16 -13 -12 -13 -14 -15 -13 -11 -11 -14 -14 -14 -12 -12 -12 -13 -13 -13 -13 -13 -13 -12 -12 -11 -11 -10 -10 -10 -8 -7 -8 -7 -8 -8 -7 -6 -5 -4 -3 -6 -8 -6 -4 -6 -9 -12 -14 -16 -18 -22 -23
-9 -9 -11 -16 -15 -13 -14 -12 -12 -11 -11 -12 -12 -12 -12 -12 -12 -13 -13 -12 -12 -12 -12 -12 -13 -12 -12 -12 -11 -10 -10 -9 -9 -8 -7 -8 -7 -7 -6 -5 -5 -8 -6 -5 -6 -9 -12 -14 -15 -17 -20 -22 -22 -21
-9 -9 -11 -12 -16 -13 -13 -12 -12 -12 -12 -12 -12 -12 -12 -12 -12 -12 -12 -12 -12 -12 -12 -12 -12 -12 -12 -12 -12 -11 -11 -10 -9 -9 -8 -7 -6 -6 -6 -6 -5 -5 -6 -6 -7 -12 -14 -15 -18 -21 -22 -21 -20 -20
-10 -10 -14 -15 -15 -13 -13 -12 -12 -12 -12 -12 -12 -12 -12 -12 -12 -12 -12 -12 -12 -12 -12 -12 -12 -12 -12 -11 -11 -10 -10 -9 -9 -8 -7 -6 -6 -6 -5 -5 -6 -6 -6 -11 -14 -15 -16 -19 -21 -21 -20 -19 -19 -20
-12 -12 -13 -14 -15 -15 -13 -13 -14 -14 -13 -13 -13 -13 -12 -12 -13 -11 -11 -12 -11 -11 -11 -11 -11 -11 -11 -10 -10 -9 -9 -8 -8 -7 -7 -7 -6 -6 -6 -6 -9 -13 -14 -15 -16 -19 -20 -21 -20 -19 -19 -19 -23 -26
Wind_Speed
23 24 27 29 28 28 27 23 23 22 22 21 22 21 20 21 25 19 2 2 1 2 11 10 9 9 7 6 3 3 2 3 2 4 4 3 2 4 2 3 4 5 4 3 1 2 3 2 4 2 3 6 4 5
21 23 26 27 27 27 26 24 22 22 21 23 22 22 19 19 22 20 10 2 5 2 2 10 12 10 12 6 10 9 1 3 4 3 4 2 3 2 3 3 2 3 5 3 6 5 3 2 5 7 7 4 4 6
21 24 25 25 26 24 24 23 22 21 21 21 22 22 18 17 19 19 15 5 5 6 4 5 8 13 13 12 13 5 4 7 5 6 2 3 3 4 3 5 2 4 4 2 2 3 4 5 3 5 5 2 5 9
21 22 22 24 24 23 23 22 22 22 20 21 23 21 19 18 18 19 14 2 2 2 1 2 5 10 13 15 17 18 14 8 10 11 3 3 3 4 3 2 3 4 2 2 4 6 7 8 5 2 7 12 18 20
19 22 20 21 23 23 22 22 23 22 22 22 22 22 19 19 19 18 9 11 6 2 2 2 3 6 7 8 11 13 14 13 9 3 4 3 3 3 1 1 3 5 6 4 4 4 3 2 8 9 12 15 18 22
20 21 20 20 22 24 24 23 24 24 24 24 24 24 21 19 18 15 2 9 10 4 3 2 2 3 4 5 9 9 7 8 6 3 3 4 3 4 3 3 5 16 11 9 3 2 1 6 11 11 15 16 18 23
20 20 20 21 21 24 26 26 25 26 24 26 27 26 22 17 15 12 5 8 16 8 1 2 2 1 3 4 5 7 8 6 6 4 3 2 2 3 2 4 4 4 10 13 7 8 6 12 8 15 17 20 22 24
20 19 20 21 22 23 26 27 27 26 27 29 29 26 17 12 13 15 7 5 11 6 3 1 2 1 5 4 3 4 4 7 9 3 3 1 1 1 4 8 14 11 8 11 15 8 3 12 19 20 21 25 27 28
20 19 19 21 22 23 25 27 28 26 29 30 17 6 2 6 6 5 4 5 17 4 2 3 2 2 4 3 2 2 3 2 3 2 2 2 2 5 8 7 10 15 12 13 15 9 12 19 25 25 26 28 31 30
20 20 18 20 21 23 24 27 29 30 28 20 4 4 2 3 9 5 8 7 8 7 4 2 4 2 5 3 0 0 0 1 1 1 2 2 4 18 19 11 6 6 15 17 21 16 20 26 29 30 30 30 30 31
19 19 17 18 20 22 22 26 29 29 24 14 10 5 12 3 6 4 3 4 5 1 5 5 10 3 7 2 2 1 1 1 1 3 1 3 4 3 5 11 17 8 15 18 12 13 20 27 35 34 32 30 30 29
18 17 16 17 19 20 23 26 28 27 18 13 14 14 5 3 3 3 2 1 2 4 3 2 4 3 4 3 2 1 2 1 3 3 1 3 4 5 5 2 11 12 17 15 10 10 19 27 32 33 32 32 29 26
16 14 15 16 17 21 26 26 29 26 10 3 1 3 3 2 2 2 4 1 2 2 8 6 2 4 3 2 3 2 1 3 1 1 3 4 4 5 3 1 9 14 16 12 11 15 20 29 31 32 33 30 28 27
15 14 14 15 15 22 26 27 28 16 3 2 3 2 1 2 2 2 1 2 3 4 9 13 4 2 2 3 1 3 0 1 2 2 5 3 2 2 2 4 11 16 17 14 15 20 25 31 33 31 30 29 27 27
16 13 13 12 19 22 24 28 20 5 1 1 1 2 2 5 4 5 7 6 5 5 7 4 3 2 1 3 1 2 0 3 5 5 3 4 3 3 4 7 12 17 17 16 19 24 30 33 33 33 30 27 25 26
16 13 8 16 20 23 27 22 5 3 0 0 1 2 5 2 4 6 5 6 4 5 6 3 2 2 3 4 3 7 6 6 4 3 6 4 2 5 6 10 14 17 18 19 22 27 32 34 34 33 29 27 26 24
14 6 14 17 19 22 23 7 3 2 1 2 2 3 3 5 6 6 10 6 6 5 2 2 4 8 2 2 3 5 5 3 3 4 5 4 5 7 10 13 16 18 21 23 27 32 34 34 33 32 32 28 25 23
15 11 14 16 18 21 11 3 2 1 1 3 3 2 4 8 9 10 8 9 4 4 2 2 3 2 5 5 4 4 8 5 3 5 7 7 8 10 12 16 18 20 22 26 30 34 35 36 34 33 31 30 27 25
13 13 13 13 16 12 2 2 2 1 3 4 7 8 6 10 15 16 18 17 16 14 10 3 3 4 4 4 3 4 3 6 6 8 8 9 10 13 15 16 18 21 24 29 33 36 36 34 33 33 31 30 28 26
12 12 11 9 12 4 3 3 3 2 2 2 7 7 8 12 15 15 15 16 15 6 4 3 3 2 3 5 7 9 9 7 10 12 12 12 13 14 16 18 21 23 29 34 37 37 35 33 32 30 28 27 26 25
11 8 8 10 6 6 3 3 3 3 3 3 4 8 8 10 7 5 7 5 7 5 2 1 5 9 10 12 10 10 9 9 14 10 11 19 18 18 19 19 22 27 32 36 38 35 33 32 31 30 28 25 23 22
7 7 9 6 5 3 3 4 3 3 3 4 6 5 5 4 4 2 10 5 2 3 5 8 12 15 14 11 10 7 6 9 12 11 8 16 23 24 23 23 27 32 35 38 37 36 34 32 30 27 26 27 24 22
6 4 3 4 4 4 2 3 3 2 1 3 7 2 3 3 3 8 2 2 2 6 11 13 15 15 16 13 9 6 6 8 10 11 12 18 20 23 24 26 29 35 39 37 34 33 33 31 29 28 27 26 24 23
5 3 3 3 5 3 2 2 2 1 1 2 3 4 4 3 8 1 3 1 4 12 14 15 16 16 11 9 8 8 9 10 11 11 13 19 23 24 25 27 31 35 37 36 35 35 33 32 30 28 26 24 21 19
2 4 3 3 3 2 2 3 4 3 1 1 0 4 3 4 2 2 3 2 7 13 16 18 16 13 13 13 11 10 8 9 11 13 16 21 24 26 27 28 30 31 35 35 34 33 32 30 28 26 24 21 20 18
2 5 4 5 2 4 5 3 3 5 2 1 4 5 4 2 2 5 3 3 7 14 18 19 20 19 15 10 12 10 8 9 11 15 16 19 23 27 33 34 35 34 35 34 30 32 32 30 28 26 24 21 18 16
4 5 5 6 3 5 2 2 3 3 3 4 3 2 2 1 5 3 5 7 15 21 21 19 17 18 19 17 12 10 10 11 14 15 14 18 21 25 29 35 37 36 34 32 32 31 31 30 28 25 24 21 18 14
7 9 6 8 5 4 4 2 4 6 4 5 3 1 5 6 4 3 6 21 22 22 19 17 15 15 17 16 13 10 11 13 13 12 12 16 18 21 26 31 31 31 29 28 27 26 25 24 25 25 22 20 19 16
5 7 10 2 2 3 7 6 5 7 7 9 5 3 4 5 8 16 20 21 20 19 18 16 13 12 11 10 10 11 15 17 17 18 22 26 27 27 30 35 35 33 32 31 27 21 21 23 23 22 20 18 16 13
7 12 5 3 5 6 4 8 4 7 9 7 4 4 7 14 14 15 17 18 17 15 13 12 12 11 10 9 10 11 15 19 19 23 31 34 35 35 34 35 36 36 34 31 31 31 28 26 25 22 20 17 14 11
10 12 3 5 3 3 6 9 6 6 5 6 9 9 9 8 11 11 9 12 12 11 11 11 10 8 7 9 9 11 14 16 18 23 27 33 35 36 37 39 37 36 35 33 32 30 28 25 22 21 18 15 12 8
8 8 6 3 2 4 6 7 5 4 4 5 5 6 4 4 5 4 6 8 8 7 6 6 6 4 4 6 8 11 13 16 19 22 33 37 38 38 37 35 33 30 29 29 28 27 24 23 21 18 15 12 9 6
5 5 3 4 3 2 5 5 1 2 4 3 4 4 4 4 6 4 3 2 2 4 5 5 3 2 2 5 8 12 14 16 18 26 32 34 33 35 34 33 32 31 29 29 28 26 23 20 18 15 12 9 7 5
Wind_Direction
339 349 345 338 338 337 334 335 333 338 336 337 336 341 338 349 345 352 10 87 337 338 171 189 178 154 148 180 162 170 155 194 183 224 204 183 181 236 281 235 198 194 167 232 216 272 334 33 101 250 252 305 312 180
341 349 341 339 338 338 338 335 334 335 335 334 336 336 339 345 343 347 340 131 210 301 253 209 215 212 218 216 194 185 200 132 234 245 206 155 194 194 189 277 140 235 194 194 181 217 249 241 259 293 304 290 267 210
342 344 338 340 335 337 339 336 334 333 333 333 333 331 338 336 341 338 320 30 162 213 248 227 227 230 237 238 215 188 230 208 219 261 232 228 211 134 191 242 219 230 186 212 360 278 252 276 280 319 346 53 154 173
340 337 340 338 337 337 341 340 335 332 333 330 326 332 333 328 329 326 309 226 172 174 224 278 244 244 248 242 239 236 235 216 241 268 257 219 202 187 215 254 220 215 142 197 264 279 276 257 208 185 104 105 124 140
335 330 338 339 339 337 339 333 330 327 324 324 324 324 319 318 318 322 272 189 152 75 326 326 289 249 244 245 240 235 237 244 250 241 225 224 152 142 213 29 251 191 189 174 226 234 169 307 169 152 131 129 134 141
327 326 331 335 339 337 337 335 331 327 326 329 320 313 310 314 320 329 185 192 209 206 342 315 281 252 237 230 211 214 231 256 222 246 249 218 223 166 192 219 255 212 215 219 235 183 152 139 152 151 139 136 139 140
323 325 325 328 333 333 335 338 334 329 329 325 322 312 299 292 290 269 244 146 194 204 238 311 291 241 236 220 219 233 228 223 204 243 252 281 202 203 219 231 253 226 234 226 224 160 115 156 162 155 146 139 140 138
321 324 325 325 330 330 331 335 334 333 330 327 318 307 285 268 262 260 257 227 175 163 188 235 271 298 196 207 218 200 224 204 198 272 283 269 279 245 256 242 246 228 189 189 189 200 230 177 158 152 150 145 141 140
320 323 324 323 327 329 328 332 334 336 331 331 332 345 96 193 200 216 199 181 185 192 210 171 181 247 191 242 213 214 208 228 215 234 222 200 186 225 229 229 244 220 194 193 186 185 163 167 158 157 157 154 147 145
318 323 322 325 327 328 327 331 336 336 340 342 340 332 229 179 201 227 131 151 173 202 243 220 171 198 191 199 204 305 313 321 238 235 305 224 252 246 250 242 259 252 207 181 150 147 163 164 166 165 163 160 156 153
319 323 324 328 329 328 329 332 338 338 349 357 356 327 321 255 224 201 167 163 164 256 211 221 188 163 197 162 194 198 189 349 314 274 271 262 271 262 312 252 234 239 200 188 194 201 185 181 168 165 163 162 158 155
319 325 329 328 331 329 333 334 339 336 330 307 302 304 315 250 245 179 152 296 154 223 175 173 185 178 165 191 129 114 123 96 256 327 298 261 256 298 322 337 190 188 185 184 187 188 179 177 172 167 163 161 160 157
316 322 325 327 330 329 332 336 339 336 340 7 28 294 324 287 316 118 149 189 209 202 182 169 142 156 140 174 69 87 72 245 360 255 244 237 262 318 327 214 181 178 180 182 175 174 173 170 168 167 162 162 159 157
313 319 321 323 329 331 329 333 338 339 339 24 357 330 165 290 319 6 346 299 326 316 186 158 109 154 133 61 120 136 299 334 270 253 241 253 276 306 228 175 178 174 179 182 172 168 165 164 162 163 163 160 159 154
310 319 320 324 331 330 330 331 331 349 299 55 29 306 312 10 313 305 319 316 336 305 206 123 83 146 83 100 77 131 65 251 223 234 234 266 322 177 172 167 170 173 173 171 168 166 164 162 161 158 159 158 158 152
309 322 325 330 332 333 334 333 355 92 6 262 226 351 336 320 336 332 326 317 321 297 227 249 138 149 205 145 137 210 153 225 244 222 253 272 201 172 167 165 167 169 170 169 168 166 163 161 160 156 153 155 156 156
304 305 323 328 332 335 334 347 5 67 315 270 242 257 289 271 269 288 318 300 319 299 235 167 190 212 68 92 251 190 204 222 214 222 239 219 196 175 165 163 167 169 168 167 164 165 162 159 156 153 150 153 155 153
281 313 320 329 332 337 329 5 333 29 285 269 274 262 299 289 282 286 289 293 300 274 226 249 139 153 201 185 247 240 229 222 229 179 174 181 180 169 170 170 169 171 169 167 165 160 158 158 158 156 156 154 155 153
290 304 317 326 330 329 288 286 311 263 254 280 280 282 276 288 288 288 276 277 278 266 290 232 240 212 225 221 240 311 297 227 209 170 170 172 172 173 171 175 174 172 169 164 162 160 159 161 162 160 160 160 159 156
284 294 306 313 323 297 253 237 256 225 246 282 284 294 288 286 292 294 285 276 276 251 220 228 239 301 294 318 310 307 308 245 198 160 160 168 173 178 178 179 175 171 167 164 163 161 161 163 163 163 162 161 161 157
285 285 293 313 295 224 240 247 246 245 272 260 278 310 290 285 272 276 282 277 230 230 237 344 320 305 310 302 298 296 288 218 201 214 197 174 176 182 181 181 179 174 171 167 164 162 165 164 161 163 162 160 158 151
271 281 304 293 240 234 250 230 244 282 263 273 303 304 272 294 283 276 314 250 287 323 320 318 314 306 299 304 303 294 267 210 210 225 218 193 174 181 184 181 179 174 172 169 170 167 166 165 161 159 159 156 157 157
276 289 259 223 223 220 210 230 233 225 191 295 324 339 285 276 259 323 257 256 298 339 333 322 313 303 295 298 297 278 220 207 217 213 199 190 190 187 185 182 184 179 174 173 172 168 164 161 160 160 160 159 160 159
268 242 232 219 208 240 216 191 231 304 282 12 40 302 297 263 320 342 250 59 323 339 335 334 331 322 301 295 282 248 230 209 207 205 198 194 186 186 190 186 184 185 181 171 171 168 165 161 162 164 165 163 161 162
212 229 203 260 206 62 56 360 342 52 236 263 310 293 290 315 304 283 230 268 324 340 339 330 327 326 320 310 295 277 242 219 219 205 197 198 193 185 187 189 185 185 180 176 169 166 165 164 164 165 162 164 163 162
211 201 165 201 207 153 185 162 195 199 163 306 237 281 325 3 320 255 238 238 310 325 326 326 321 315 303 290 302 287 262 230 218 211 204 206 204 201 189 182 176 178 178 176 174 174 168 166 162 161 162 164 164 164
232 250 203 196 165 144 109 98 127 125 155 205 252 354 47 311 254 253 264 293 317 317 315 313 304 297 294 291 278 267 259 240 227 226 219 212 212 210 209 191 180 177 171 178 178 175 169 163 163 168 168 162 160 157
223 186 178 172 169 179 144 136 168 198 214 191 137 241 192 204 248 264 299 316 314 313 312 309 300 293 287 281 271 255 242 232 227 215 202 198 200 200 196 184 172 168 170 175 174 168 168 168 167 165 165 164 159 155
206 187 158 111 133 193 212 192 211 203 183 176 165 225 244 239 266 299 310 317 314 312 313 315 316 311 294 279 261 238 226 218 209 189 186 175 172 172 176 174 168 167 164 163 165 166 161 161 162 160 158 158 154 151
191 176 137 148 165 216 214 195 191 188 189 199 224 261 273 278 291 295 298 311 315 314 314 312 319 320 303 288 272 241 221 210 205 211 192 179 169 165 169 166 161 160 161 158 156 154 161 163 160 160 158 154 149 144
162 179 123 171 220 197 191 193 195 203 218 234 236 250 265 292 296 297 294 315 319 318 320 322 320 314 294 277 254 231 213 203 205 203 197 177 166 160 158 160 162 162 161 165 159 160 158 159 159 156 154 151 144 143
161 177 160 177 237 178 174 187 200 218 224 222 232 227 262 271 274 276 308 326 322 320 331 340 332 299 254 231 225 214 217 196 188 186 172 164 156 155 158 160 157 157 156 152 152 153 156 157 154 152 150 149 149 154
130 152 145 120 117 179 184 185 192 303 238 241 232 221 223 247 254 260 284 320 357 26 11 357 356 324 246 223 204 178 169 164 162 166 161 152 150 150 147 146 146 146 149 150 150 151 152 154 152 150 149 151 156 163
Height
1454 1449 1446 1443 1439 1433 1427 1422 1418 1415 1411 1408 1405 1401 1396 1392 1387 1384 1380 1379 1381 1380 1380 1382 1383 1384 1389 1391 1393 1396 1399 1398 1399 1397 1395 1394 1395 1395 1394 1389 1386 1385 1385 1389 1386 1386 1380 1365 1367 1366 1359 1351 1350 1349
1451 1447 1443 1440 1436 1431 1425 1420 1416 1412 1409 1405 1402 1399 1395 1392 1388 1384 1379 1378 1379 1381 1381 1381 1382 1384 1386 1388 1389 1392 1392 1393 1394 1392 1391 1388 1388 1393 1393 1388 1384 1386 1378 1378 1381 1377 1364 1364 1362 1359 1356 1354 1351 1351
1448 1445 1442 1437 1433 1429 1423 1418 1414 1410 1406 1403 1400 1396 1393 1391 1387 1384 1378 1378 1379 1381 1380 1381 1380 1382 1384 1386 1388 1389 1389 1391 1391 1389 1386 1386 1385 1387 1389 1386 1379 1375 1373 1375 1372 1365 1362 1360 1360 1357 1356 1354 1353 1354
1445 1442 1439 1435 1431 1426 1421 1416 1412 1407 1404 1400 1396 1393 1391 1388 1385 1382 1378 1377 1378 1380 1380 1379 1378 1379 1381 1382 1383 1385 1385 1386 1387 1387 1384 1380 1380 1379 1382 1379 1377 1371 1370 1370 1369 1361 1360 1358 1359 1359 1358 1357 1357 1359
1443 1440 1436 1432 1428 1424 1419 1414 1409 1404 1400 1396 1393 1390 1388 1386 1383 1378 1375 1375 1377 1381 1379 1378 1377 1378 1378 1378 1379 1381 1382 1383 1384 1383 1380 1376 1375 1377 1378 1378 1376 1367 1365 1367 1365 1357 1358 1357 1358 1360 1359 1360 1362 1363
1439 1436 1433 1429 1425 1421 1415 1410 1405 1400 1396 1392 1389 1386 1383 1382 1380 1376 1374 1375 1376 1378 1379 1378 1377 1376 1377 1377 1378 1379 1380 1380 1380 1379 1374 1370 1370 1372 1377 1375 1358 1354 1354 1355 1355 1355 1356 1357 1359 1361 1362 1364 1366 1369
1436 1432 1430 1426 1422 1418 1412 1406 1401 1396 1391 1388 1383 1380 1378 1377 1378 1378 1373 1373 1376 1379 1379 1378 1376 1376 1375 1376 1377 1377 1377 1377 1377 1377 1371 1368 1368 1368 1369 1366 1352 1352 1353 1355 1355 1354 1357 1358 1359 1362 1364 1366 1370 1374
1432 1429 1426 1423 1419 1415 1409 1403 1397 1391 1386 1381 1376 1371 1369 1371 1373 1371 1371 1372 1374 1377 1378 1379 1377 1377 1375 1374 1375 1374 1373 1374 1374 1372 1370 1368 1367 1367 1362 1349 1347 1349 1351 1352 1353 1354 1355 1356 1360 1363 1367 1369 1373 1378
1429 1425 1423 1419 1415 1411 1406 1400 1394 1387 1381 1374 1368 1365 1364 1366 1368 1369 1370 1371 1375 1379 1375 1376 1376 1375 1374 1373 1373 1373 1372 1372 1372 1370 1368 1369 1363 1361 1345 1343 1343 1344 1346 1347 1351 1353 1354 1357 1360 1364 1368 1373 1375 1381
1425 1422 1419 1415 1412 1408 1403 1397 1390 1384 1377 1371 1368 1367 1366 1366 1367 1367 1369 1371 1373 1374 1373 1371 1371 1373 1374 1372 1372 1373 1372 1371 1370 1368 1368 1365 1354 1340 1338 1339 1340 1340 1342 1344 1347 1353 1355 1359 1361 1365 1369 1375 1378 1382
1421 1418 1415 1412 1409 1405 1400 1395 1388 1381 1376 1373 1370 1370 1368 1366 1366 1365 1365 1367 1368 1370 1368 1367 1368 1370 1372 1372 1371 1372 1373 1375 1374 1373 1368 1358 1352 1338 1335 1335 1337 1339 1341 1344 1346 1348 1351 1354 1357 1364 1371 1377 1382 1386
1417 1415 1412 1409 1406 1402 1398 1393 1386 1381 1378 1376 1375 1372 1368 1366 1365 1364 1365 1367 1366 1370 1365 1366 1367 1368 1369 1370 1369 1373 1375 1375 1376 1373 1371 1359 1343 1336 1335 1334 1335 1338 1341 1345 1347 1348 1351 1355 1361 1367 1373 1378 1384 1389
1413 1411 1408 1405 1402 1399 1395 1390 1385 1379 1374 1373 1374 1373 1371 1367 1363 1360 1362 1365 1364 1364 1363 1363 1366 1366 1369 1370 1371 1372 1373 1372 1374 1373 1364 1351 1336 1335 1335 1335 1336 1339 1343 1346 1347 1350 1353 1358 1365 1370 1375 1381 1386 1391
1409 1407 1405 1402 1399 1396 1392 1387 1381 1377 1375 1374 1375 1375 1374 1371 1368 1366 1367 1366 1365 1363 1361 1361 1364 1365 1367 1370 1373 1373 1376 1375 1373 1371 1362 1341 1335 1334 1335 1335 1337 1340 1343 1346 1349 1352 1355 1360 1367 1373 1379 1384 1389 1394
1405 1403 1401 1399 1396 1393 1388 1384 1378 1375 1376 1376 1376 1374 1370 1369 1369 1368 1367 1365 1365 1363 1363 1362 1363 1364 1367 1370 1373 1375 1376 1372 1368 1359 1346 1334 1334 1334 1335 1336 1338 1341 1344 1347 1351 1354 1358 1364 1369 1375 1382 1387 1393 1397
1401 1399 1397 1395 1392 1388 1384 1380 1376 1375 1376 1376 1376 1377 1375 1374 1372 1369 1367 1366 1364 1363 1363 1361 1363 1364 1361 1368 1374 1371 1373 1364 1346 1343 1334 1333 1334 1335 1336 1337 1340 1342 1345 1348 1352 1357 1362 1367 1372 1378 1385 1391 1396 1400
1398 1396 1393 1391 1388 1384 1380 1378 1378 1376 1377 1377 1375 1375 1375 1375 1374 1371 1368 1366 1364 1363 1360 1359 1359 1356 1364 1370 1370 1359 1354 1339 1334 1334 1334 1334 1335 1335 1337 1339 1341 1344 1346 1350 1353 1358 1364 1370 1376 1381 1386 1393 1399 1403
1393 1393 1390 1388 1385 1382 1378 1379 1378 1376 1376 1375 1375 1372 1372 1372 1371 1369 1366 1365 1364 1361 1359 1356 1356 1362 1361 1359 1354 1338 1334 1333 1333 1333 1334 1336 1337 1337 1339 1341 1343 1346 1348 1352 1357 1362 1367 1372 1377 1383 1389 1394 1399 1404
1389 1388 1386 1385 1383 1381 1379 1380 1378 1376 1375 1375 1372 1371 1369 1367 1365 1364 1362 1361 1361 1360 1358 1354 1352 1353 1346 1339 1337 1333 1333 1333 1333 1333 1334 1336 1337 1338 1340 1343 1346 1348 1351 1355 1359 1364 1370 1376 1380 1385 1390 1395 1399 1404
1385 1384 1383 1381 1382 1380 1378 1378 1377 1375 1373 1373 1371 1369 1367 1364 1361 1358 1357 1357 1358 1356 1352 1347 1341 1339 1338 1337 1336 1334 1332 1332 1333 1333 1334 1335 1338 1340 1342 1344 1347 1350 1354 1357 1362 1366 1372 1378 1384 1388 1393 1397 1401 1405
1381 1380 1379 1379 1378 1377 1375 1375 1374 1373 1372 1371 1370 1368 1364 1361 1359 1357 1356 1354 1353 1348 1343 1342 1341 1339 1337 1335 1334 1333 1331 1330 1331 1333 1331 1332 1337 1340 1343 1346 1349 1353 1356 1360 1364 1369 1375 1380 1385 1390 1394 1399 1404 1408
1377 1377 1375 1374 1375 1374 1373 1373 1373 1372 1371 1369 1368 1367 1364 1361 1357 1355 1355 1352 1348 1347 1346 1343 1341 1338 1335 1334 1332 1330 1329 1329 1330 1331 1331 1332 1334 1338 1342 1345 1349 1353 1358 1362 1366 1370 1375 1381 1387 1392 1397 1401 1406 1409
1374 1373 1372 1373 1373 1372 1372 1371 1371 1370 1370 1368 1366 1365 1362 1359 1355 1354 1352 1350 1349 1347 1345 1342 1339 1337 1334 1330 1329 1327 1328 1328 1330 1330 1330 1332 1335 1339 1342 1345 1350 1354 1358 1363 1369 1373 1378 1384 1389 1394 1398 1403 1407 1410
1370 1370 1370 1368 1369 1369 1369 1368 1368 1368 1367 1368 1371 1369 1362 1357 1354 1351 1352 1349 1348 1346 1343 1341 1337 1332 1330 1329 1328 1327 1328 1328 1328 1328 1329 1331 1334 1339 1344 1347 1350 1355 1361 1364 1370 1375 1379 1384 1390 1395 1399 1403 1408 1412
1369 1368 1368 1366 1366 1368 1369 1370 1370 1369 1372 1372 1370 1368 1361 1358 1358 1358 1353 1347 1345 1344 1341 1339 1336 1334 1331 1328 1328 1327 1325 1325 1325 1326 1328 1331 1333 1337 1343 1347 1351 1357 1361 1365 1371 1376 1381 1386 1391 1396 1400 1405 1408 1412
1368 1362 1364 1360 1363 1365 1366 1371 1372 1371 1371 1373 1369 1362 1360 1360 1361 1355 1348 1345 1343 1341 1339 1336 1332 1329 1328 1328 1325 1325 1325 1324 1324 1325 1326 1329 1333 1335 1338 1342 1347 1355 1361 1367 1372 1376 1381 1386 1391 1396 1401 1406 1410 1413
1363 1358 1356 1358 1358 1358 1362 1362 1363 1365 1371 1371 1367 1365 1366 1367 1364 1347 1342 1341 1340 1338 1334 1332 1329 1326 1324 1323 1322 1322 1321 1322 1322 1324 1325 1327 1331 1334 1338 1341 1346 1354 1361 1368 1373 1377 1381 1386 1391 1397 1402 1406 1410 1414
1350 1351 1354 1354 1355 1356 1359 1361 1364 1363 1361 1359 1361 1366 1366 1359 1350 1342 1340 1338 1334 1331 1329 1327 1324 1322 1320 1319 1317 1317 1318 1319 1320 1321 1323 1327 1330 1334 1338 1344 1351 1358 1364 1371 1376 1381 1385 1388 1393 1398 1403 1407 1410 1413
1346 1346 1348 1352 1353 1353 1352 1353 1352 1350 1351 1352 1355 1356 1350 1345 1342 1339 1337 1334 1330 1326 1323 1321 1319 1317 1315 1313 1313 1313 1316 1317 1317 1318 1321 1324 1328 1333 1338 1343 1349 1356 1364 1371 1378 1382 1387 1392 1397 1401 1405 1408 1411 1413
1341 1343 1344 1347 1349 1349 1344 1346 1346 1347 1348 1349 1349 1348 1345 1341 1338 1336 1333 1330 1327 1323 1321 1318 1316 1314 1312 1312 1311 1311 1313 1314 1315 1318 1319 1322 1326 1330 1336 1343 1349 1356 1363 1370 1376 1381 1388 1393 1398 1402 1406 1408 1411 1413
1336 1339 1341 1342 1343 1342 1342 1343 1345 1346 1346 1346 1346 1345 1343 1340 1335 1332 1330 1328 1324 1322 1319 1316 1314 1313 1312 1311 1311 1311 1312 1313 1315 1317 1320 1325 1328 1332 1337 1343 1350 1357 1363 1369 1375 1383 1388 1395 1399 1403 1406 1408 1410 1413
1335 1336 1338 1342 1341 1341 1342 1343 1343 1343 1343 1343 1342 1341 1340 1338 1335 1331 1329 1327 1324 1321 1319 1316 1314 1313 1312 1312 1312 1312 1313 1314 1315 1318 1321 1325 1330 1336 1341 1347 1354 1362 1368 1374 1380 1385 1392 1396 1400 1403 1406 1408 1411 1413
1334 1335 1337 1337 1339 1340 1341 1342 1342 1341 1341 1339 1338 1338 1337 1337 1333 1330 1328 1327 1326 1323 1321 1319 1317 1315 1314 1313 1313 1313 1315 1316 1318 1322 1327 1332 1337 1342 1346 1353 1360 1366 1372 1377 1382 1388 1393 1397 1400 1403 1406 1409 1411 1413